Regional Weather Roundup
Issued by NWS Midland/Odessa, TX

Skip options and go directly to product.
Home | Oldest Version | Next Version | Current Version | All | Text Only | Save Text | Print | Product List | Glossary On

Skip product version selection by date and time.   
611
ASUS44 KMAF 291801
RWRMAF
MIDLAND AREA WEATHER ROUNDUP
NATIONAL WEATHER SERVICE MIDLAND TX
100 PM CDT SAT AUG 29 2015

...IN SOUTHWEST TEXAS AND SOUTHEAST NEW MEXICO...

CITY           SKY/WX    TMP DP  RH WIND       PRES   REMARKS
ALPINE         CLOUDY    76  50  39 NE12      30.30S
ANDREWS        CLOUDY    72  66  83 S3        30.21R
ARTESIA        SUNNY     81  59  47 E3        30.21S
BIG SPRING     CLOUDY    75  60  59 NW6       30.18F
CARLSBAD       SUNNY     85  55  35 CALM      30.17F
DRYDEN           N/A     83  61  47 VRB6      30.10S
FORT STOCKTON  CLOUDY    75  58  55 E6        30.17F
GUAD PASS      SUNNY     77  56  48 NE16G28   30.31S
HOBBS          MOSUNNY   79  59  50 CALM      30.22S
MARFA          PTSUNNY   79  48  34 E9        30.26F
MIDLAND AIRPK  DRIZZLE   75  64  66 NW6       30.19S
MIDLAND INTL   CLOUDY    78  59  51 MISG      30.17S
ODESSA         CLOUDY    76  60  57 N3        30.19R
PECOS          PTSUNNY   82  53  37 E9        30.16S
PRESIDIO       NOT AVBL
SEMINOLE       CLOUDY    76  64  65 SE3       30.21S
SNYDER         LGT RAIN  78  60  54 CALM      30.16S
WINK           PTSUNNY   82  60  47 VRB3      30.15F
$$
...OTHER STATIONS IN TEXAS...

CITY           SKY/WX    TMP DP  RH WIND       PRES   REMARKS
ABILENE        CLOUDY    89  59  36 W8        30.08F
AMARILLO       SUNNY     86  60  41 NE13G20   30.19S
AUSTIN         PTSUNNY   87  63  44 S3        30.04F
BROWNSVILLE    MOSUNNY   91  66  43 VRB3      30.00F
CORPUS CHRISTI MOSUNNY   90  65  43 N12       30.01F
DALLAS FTW     PTSUNNY   92  63  38 SW10      29.99F
DEL RIO        MOSUNNY   89  65  44 SE8       30.03F
EL PASO        MOSUNNY   85  55  35 N3        30.18F
HOUSTON INT    MOSUNNY   87  63  44 E5        30.04F
LUBBOCK        CLOUDY    77  65  66 E3        30.19S
SAN ANGELO     PTSUNNY   85  61  44 CALM      30.10F
SAN ANTONIO    MOSUNNY   87  64  46 VRB6      30.06F
WACO           MOSUNNY   91  64  40 S16       30.03F
WICHITA FALLS  NOT AVBL
$$
...OTHER LOCATIONS IN NEW MEXICO...

CITY           SKY/WX    TMP DP  RH WIND       PRES   REMARKS
ALAMAGORDO     SUNNY     84  52  32 S5        30.20F
ALBUQUERQUE    MOSUNNY   82  50  32 W5        30.30F
CANNON AFB     MOSUNNY   85  57  37 SE9G22    30.22S
CLOVIS         SUNNY     86  57  37 SE16      30.23F
HOLLOMAN AFB   SUNNY     86  54  34 CALM      30.17F
ROSWELL        SUNNY     83  54  36 VRB5      30.20F
RUIDOSO        MOSUNNY   72  52  49 MISG      30.41F
SANTA FE       SUNNY     80  45  28 NE5       30.37F
TRUTH OR CONSE SUNNY     82  55  39 NE8       30.24F
TUCUMCARI      SUNNY     88  54  31 NE10G16   30.20F
$$

USA.gov is the U.S. government's official web portal to all federal, state and local government web resources and services.